CZ-2D DEB

Satellite information

Favourite Embed

Satellite Type and Status

DEBRISIN ORBIT

Key statistics

Satellite CZ-2D DEB at a glance.

Uptime

6149

Days in orbit

Revolutions

≈ 14.6

Per day

Orbit

SSO

Sun Synchronous Orbit

Inclination

98.3

Latest

Satellite identification and parameters

Extended collection of information and parameters for CZ-2D DEB.

Object identification

Identified? True

Debris? True

Object name: CZ-2D DEB

International designator: 2008-056F

Object number (NORAD): 35574

Object ID (CCSDS): 35574

Country: PEOPLES REPUBLIC OF CHINA (PRC)

Current information (Y/N): Y

RCS size: SMALL

Orbital parameters

Period: 98.955 minutes

Inclination: 98.3268 deg

SMA: 7086.809 km

Apoapsis: 788.348 km

Periapsis: 629.0 km

RAAN: 269.4608 deg

Eccentricy: 0.01124263

Argument of periapsis: 82.5622 deg

Mean anomaly: 278.8334 deg

Mean motion: 14.55213306 rev/day

Mean motion (dot): 0.00004433 rev/day2

B* drag term: 0.00095158001 1/REarth

Two-line elements (TLE)

Creation date: Sept. 5, 2025, 7:38 p.m.

Reference frame: TEME

Reference center: EARTH

Epoch: Sept. 5, 2025, 1:56 p.m. UTC

TLE line 0: 0 CZ-2D DEB

TLE line 1: 1 35574U 08056F 25248.58106173 .00004433 00000-0 95158-3 0 9990

TLE line 2: 2 35574 98.3268 269.4608 0112426 82.5622 278.8334 14.55213306881527

Live tracking on map

Real-time ground track for satellite CZ-2D DEB.

In-orbit conjunctions

A list of the most updated potential collisions computed for object CZ-2D DEB.

Target Orbit TCA Probability of collision Miss distance Type
FENGYUN 1C DEB SSO 2025-01-04 11:04:59 0.0001564549 62.0 (m) DEBRIS

Associated space launch

Chinese experimental Earth observation satellite

CZ-2D DEB was lifted into orbit during the mission ‘Long March 2D | Shiyan Weixing 3’, on board a Long March 2D space rocket.

The launch took place on Nov. 5, 2008, 12:15 a.m. from Launch Area 4 (SLS-2 / 603).

For more information about the launch, click the button.

Launch to space Long March 2D | Shiyan Weixing 3
Long March 2D | Shiyan Weixing 3

Agency: N/A

Status: Launch Successful

Launch date: Nov. 5, 2008, 12:15 a.m. UTC

Rocket: Long March 2D

Launch pad: Launch Area 4 (SLS-2 / 603)

Location: Jiuquan Satellite Launch Center, People's Republic of China

...

Latest news about this satellite

There are no fresh news available about this satellite. Check back as we update our databases every day.


Newsletter sign-up

Weekly statistics, charts and insights to help you stay on top of the space industry.